Last 30 Days

Alpine-Roundhouse Btm 6950'

Daily Data | America/Los_Angeles
as of 10/27/20 8:28 PM PDT
Date Daily Max Temp (°F) Time of Max Temp Daily Min Temp (°F) Time of Min Temp Wind Spd (mph) Daily Max Wind (mph) Max Wind Dir (°) Time of Max Wind Daily Rain (In) Seasonal Rainfall (In) SnowDepth (in) Max RH (%) Min RH (%) Wet Bulb (°F) WetB Hrs <28F (hrs) Min Press (inHg) Time of Min Press Bat Volt Min Day (V)
10/26/20 40.8 1550 21.8 0425 3.1 23.5 S | 181 0040 0.00 0.02 1.6 74 14 23.8 22.1 30.12 0001 13.2
10/25/20 46.0 0109 24.4 2335 4.1 26.9 NW | 326 2140 0.00 0.02 3.3 64 22 29.8 7.4 29.95 0725 13.2
10/24/20 57.8 1333 43.2 2247 3.8 17.6 SE | 140 1743 0.00 0.02 1.6 60 22 38.7 0.0 30.00 2145 13.2
10/23/20 61.7 1215 30.7 0810 1.6 17.2 WNW | 301 1555 0.00 0.02 1.5 90 23 37.8 0.0 30.07 0435 13.0
10/22/20 59.2 1519 35.2 2349 1.9 10.6 N | 9 1332 0.00 0.02 1.8 66 28 37.4 0.0 30.02 0450 13.1
10/21/20 67.2 1212 47.5 0518 3.0 26.1 SE | 135 1440 0.00 0.02 1.7 38 19 41.2 0.0 30.04 1525 13.1
10/20/20 70.1 1559 45.3 0759 2.2 11.1 SSE | 165 1012 0.00 0.02 1.4 52 12 41.8 0.0 30.10 1605 13.1
10/19/20 70.9 1533 47.9 0737 2.2 11.3 SE | 145 1039 0.00 0.02 1.5 46 19 42.6 0.0 30.18 1720 13.1
10/18/20 69.2 1317 51.6 2233 3.5 16.9 SSE | 168 1350 0.00 0.02 1.2 47 21 43.5 0.0 30.21 0420 13.1
10/17/20 73.2 1222 46.6 0728 2.4 16.1 S | 178 1506 0.00 0.02 2.0 34 13 41.6 0.0 30.20 1530 13.1
10/16/20 68.0 1513 42.8 0848 1.4 8.4 N | 351 1512 0.00 0.02 1.8 53 18 40.3 0.0 30.26 2350 13.2
10/15/20 65.3 1511 44.8 0659 1.6 11.4 SE | 143 1217 0.00 0.02 1.5 52 28 41.7 0.0 30.32 0430 13.1
10/14/20 72.3 1549 48.4 0708 2.0 10.4 N | 2 1531 0.00 0.02 1.2 49 21 44.3 0.0 30.30 0435 13.1
10/13/20 69.4 1321 50.8 0728 2.5 15.5 N | 349 1356 0.01 0.02 2.0 46 21 43.8 0.0 30.26 0355 13.1
10/12/20 67.6 1455 49.4 0021 2.7 12.6 S | 172 1420 0.01 0.01 1.3 51 17 42.4 0.0 30.25 1800 13.0
10/11/20 65.0 1615 40.3 0826 2.7 17.1 SSE | 152 0034 0.00 0.00 1.9 87 22 42.9 0.0 30.10 0005 13.2
10/10/20 54.4 1110 45.4 2325 5.4 26.6 SE | 145 1642 0.00 0.00 1.3 84 28 41.9 0.0 30.02 1525 13.2
10/9/20 66.8 1316 46.0 0742 2.4 13.0 SSE | 166 1418 0.00 0.00 1.3 46 18 40.3 0.0 30.08 1720 13.1
10/8/20 64.8 1121 49.7 2237 2.0 12.8 S | 172 1805 0.00 0.00 2.0 30 16 39.7 0.0 30.10 1655 13.1
10/7/20 71.2 1228 50.1 0648 2.5 16.0 SSE | 154 1453 0.00 0.00 2.5 33 8 41.2 0.0 30.12 1505 13.1
10/6/20 73.5 1238 50.1 0657 2.4 14.9 SSE | 153 1446 0.00 0.00 2.6 34 8 42.2 0.0 30.21 2215 13.1
10/5/20 74.5 1507 52.1 0714 2.4 12.4 SSE | 167 1615 0.00 0.00 1.8 32 10 42.6 0.0 30.26 0430 13.1
10/4/20 72.3 1216 52.3 0745 2.7 16.7 S | 180 1329 0.00 0.00 1.6 31 14 43.0 0.0 30.23 1515 13.1
10/3/20 77.1 1528 53.8 0723 2.4 13.4 SSW | 192 1827 0.00 0.00 1.2 36 11 44.1 0.0 30.21 1700 13.1
10/2/20 78.3 1251 54.9 0752 2.1 10.5 SW | 223 1331 0.00 0.00 1.8 30 8 44.3 0.0 30.25 1740 13.1
10/1/20 77.9 1545 53.7 0535 1.9 13.4 N | 1 1454 0.00 0.00 1.0 36 12 45.1 0.0 30.31 1930 13.1
9/30/20 74.4 1530 52.5 0705 2.0 11.0 S | 188 1435 0.00 17.81 1.4 45 22 46.5 0.0 30.34 1910 13.1
9/29/20 73.6 1315 49.8 0554 2.1 16.2 SSE | 152 1603 0.00 17.81 1.0 39 20 45.1 0.0 30.30 0400 13.2
9/28/20 67.7 1533 47.2 0334 2.2 14.0 N | 9 0049 0.01 17.81 1.7 50 20 42.5 0.0 30.28 1820 12.9
9/27/20 64.5 1526 43.7 0621 2.9 18.5 NNW | 346 1607 0.00 17.80 1.3 75 31 44.4 0.0 30.22 0350 13.1
Max 78.3 - 54.9 - 5.4 26.9 - - 0.01 - 3.3 90 31 46.5 22.1 30.34 - 13.2
Avg - - - - 2.5 - - - - - 1.7 - - 41.2 - - - -
Min 40.8 - 21.8 - 1.4 8.4 - - 0.00 - 1.0 30 8 23.8 0.0 29.95 - 12.9